Retour au catalogue

BLUEWALKER 3

ActifCommunicationsVLEO
NORAD 53807·PAYLOAD·🇺🇸 United States

Lancé Sep 11, 2022 depuis Cape Canaveral Space Force Station

Loading…

Prochains Passages (prochaines 24 heures)

TLE

FraisSource: CelesTrak SupGP

Époque: Sep 14, 2026, 05:06 UTC

1 53807C 22111AL  26257.21259258  .00000279  00000+0  70382-5 0  2575
2 53807  53.2294 335.7030 0007245  92.4546 189.4616 15.39253174    15

Suivez BLUEWALKER 3 en temps réel avec AllMySat

Download on the App Store